When you browse on this site, cookies collect data to enhance your experience and personalize the content and advertising you see.
Visit our Privacy Policy to learn more. By continuing to use the site, you agree to this use of cookies and data.
  • în România
  • Lista ţărilor
  • Pe 7 zile
  • Temperatura apei
  • Hartă satelitară
  • Meteo pe hartă
  • Widget-uri
  • user-avatar
    Intrare

    Meteo pe oră la Chichester

    Astăzi, 17 Ianuarie, Joi

    Timp Temperatura Precipitaţii Vânt Presiune Umiditate
    00:00 +4°C° 0 mm 6 m/s 751 mmHg 81%
    01:00 +4°C° 0.2 mm 6 m/s 751 mmHg 83%
    02:00 +3°C° 0.2 mm 7 m/s 751 mmHg 85%
    03:00 +2°C° 0.2 mm 8 m/s 751 mmHg 88%
    04:00 +2°C° 0 mm 8 m/s 751 mmHg 87%
    05:00 +1°C° 0 mm 8 m/s 752 mmHg 87%
    06:00 +1°C° 0 mm 8 m/s 753 mmHg 86%
    07:00 +1°C° 0 mm 8 m/s 754 mmHg 86%
    08:00 +1°C° 0 mm 8 m/s 754 mmHg 86%
    09:00 0°C° 0 mm 8 m/s 755 mmHg 87%
    10:00 +1°C° 0 mm 8 m/s 756 mmHg 79%
    11:00 +1°C° 0 mm 8 m/s 757 mmHg 71%
    12:00 +2°C° 0 mm 8 m/s 758 mmHg 63%
    13:00 +3°C° 0 mm 7 m/s 759 mmHg 62%
    14:00 +2°C° 0 mm 7 m/s 759 mmHg 61%
    15:00 +2°C° 0 mm 7 m/s 760 mmHg 60%
    16:00 +2°C° 0 mm 6 m/s 760 mmHg 63%
    17:00 +1°C° 0 mm 5 m/s 761 mmHg 67%
    18:00 0°C° 0 mm 5 m/s 761 mmHg 70%
    19:00 0°C° 0 mm 4 m/s 761 mmHg 71%
    20:00 0°C° 0 mm 4 m/s 762 mmHg 71%
    21:00 +1°C° 0 mm 3 m/s 762 mmHg 72%
    22:00 +1°C° 0 mm 3 m/s 762 mmHg 72%
    23:00 +2°C° 0 mm 2 m/s 762 mmHg 72%

    Mâine, 18 Ianuarie, Vineri

    Timp Temperatura Precipitaţii Vânt Presiune Umiditate
    00:00 +2°C° 0 mm 2 m/s 763 mmHg 72%
    01:00 +2°C° 0 mm 1 m/s 763 mmHg 72%
    02:00 +2°C° 0 mm 1 m/s 762 mmHg 72%
    03:00 +1°C° 0 mm 0 m/s 762 mmHg 72%
    04:00 +3°C° 0 mm 1 m/s 762 mmHg 72%
    05:00 +3°C° 0 mm 1 m/s 762 mmHg 72%
    06:00 +2°C° 0 mm 2 m/s 762 mmHg 72%
    07:00 +3°C° 0 mm 2 m/s 762 mmHg 71%
    08:00 +2°C° 0 mm 3 m/s 762 mmHg 70%
    09:00 +1°C° 0 mm 4 m/s 761 mmHg 69%
    10:00 +2°C° 0 mm 5 m/s 761 mmHg 67%
    11:00 +3°C° 0 mm 6 m/s 761 mmHg 64%
    12:00 +4°C° 0 mm 7 m/s 761 mmHg 62%
    13:00 +4°C° 0 mm 7 m/s 760 mmHg 63%
    14:00 +4°C° 0 mm 7 m/s 760 mmHg 64%
    15:00 +4°C° 0 mm 7 m/s 759 mmHg 65%
    16:00 +3°C° 0 mm 7 m/s 759 mmHg 65%
    17:00 +2°C° 0 mm 8 m/s 759 mmHg 65%
    18:00 +2°C° 0 mm 8 m/s 758 mmHg 65%
    19:00 +2°C° 0.2 mm 8 m/s 758 mmHg 68%
    20:00 +2°C° 0.2 mm 8 m/s 758 mmHg 71%
    21:00 +2°C° 0.2 mm 9 m/s 758 mmHg 74%
    22:00 +2°C° 0.2 mm 9 m/s 757 mmHg 76%
    23:00 +2°C° 0.2 mm 9 m/s 757 mmHg 78%

    Poimâine, 19 Ianuarie, Sâmbătă

    Timp Temperatura Precipitaţii Vânt Presiune Umiditate
    00:00 +2°C° 0.2 mm 9 m/s 756 mmHg 80%
    01:00 +2°C° 0.1 mm 9 m/s 756 mmHg 83%
    02:00 +2°C° 0.1 mm 8 m/s 756 mmHg 86%
    03:00 +2°C° 0.1 mm 8 m/s 755 mmHg 89%
    04:00 +4°C° 0.3 mm 8 m/s 755 mmHg 90%
    05:00 +4°C° 0.3 mm 8 m/s 755 mmHg 90%
    06:00 +4°C° 0.3 mm 8 m/s 754 mmHg 91%
    07:00 +4°C° 0.2 mm 7 m/s 754 mmHg 90%
    08:00 +5°C° 0.2 mm 7 m/s 754 mmHg 90%
    09:00 +5°C° 0.2 mm 7 m/s 755 mmHg 89%
    10:00 +5°C° 0.1 mm 7 m/s 754 mmHg 89%
    11:00 +5°C° 0.1 mm 7 m/s 754 mmHg 89%
    12:00 +5°C° 0.1 mm 6 m/s 754 mmHg 89%
    13:00 +5°C° 0.1 mm 6 m/s 754 mmHg 89%
    14:00 +5°C° 0.1 mm 6 m/s 754 mmHg 89%
    15:00 +5°C° 0.1 mm 6 m/s 753 mmHg 89%
    16:00 +6°C° 0 mm 5 m/s 754 mmHg 90%
    17:00 +6°C° 0 mm 5 m/s 754 mmHg 90%
    18:00 +6°C° 0 mm 5 m/s 754 mmHg 91%
    19:00 +6°C° 0 mm 5 m/s 754 mmHg 91%
    20:00 +6°C° 0 mm 4 m/s 754 mmHg 90%
    21:00 +6°C° 0 mm 4 m/s 755 mmHg 90%
    22:00 +6°C° 0.3 mm 4 m/s 755 mmHg 91%
    23:00 +6°C° 0.3 mm 4 m/s 755 mmHg 91%

    20 Ianuarie, Duminică

    Timp Temperatura Precipitaţii Vânt Presiune Umiditate
    00:00 +7°C° 0.3 mm 3 m/s 755 mmHg 92%
    01:00 +7°C° 0.2 mm 3 m/s 756 mmHg 92%
    02:00 +5°C° 0.2 mm 3 m/s 756 mmHg 92%
    03:00 +5°C° 0.2 mm 3 m/s 756 mmHg 92%
    04:00 +5°C° 0.1 mm 3 m/s 756 mmHg 92%
    05:00 +5°C° 0.1 mm 3 m/s 757 mmHg 92%
    06:00 +5°C° 0.1 mm 3 m/s 757 mmHg 92%
    07:00 +6°C° 0.1 mm 2 m/s 758 mmHg 91%
    08:00 +6°C° 0.1 mm 2 m/s 759 mmHg 91%
    09:00 +6°C° 0.1 mm 2 m/s 759 mmHg 90%
    10:00 +6°C° 0 mm 2 m/s 760 mmHg 89%
    11:00 +5°C° 0 mm 3 m/s 761 mmHg 88%
    12:00 +7°C° 0 mm 3 m/s 761 mmHg 86%
    13:00 +7°C° 0 mm 3 m/s 762 mmHg 84%
    14:00 +6°C° 0 mm 4 m/s 762 mmHg 82%
    15:00 +6°C° 0 mm 4 m/s 762 mmHg 81%
    16:00 +5°C° 0 mm 5 m/s 763 mmHg 83%
    17:00 +3°C° 0 mm 5 m/s 763 mmHg 86%
    18:00 +3°C° 0 mm 5 m/s 764 mmHg 89%
    19:00 +3°C° 0 mm 5 m/s 765 mmHg 89%
    20:00 +3°C° 0 mm 5 m/s 765 mmHg 89%
    21:00 +5°C° 0 mm 5 m/s 766 mmHg 89%
    22:00 +3°C° 0 mm 6 m/s 766 mmHg 88%
    23:00 +3°C° 0 mm 6 m/s 767 mmHg 86%

    21 Ianuarie, Luni

    Timp Temperatura Precipitaţii Vânt Presiune Umiditate
    00:00 +3°C° 0 mm 6 m/s 767 mmHg 85%
    01:00 +2°C° 0 mm 6 m/s 767 mmHg 83%
    02:00 +1°C° 0 mm 6 m/s 768 mmHg 80%
    03:00 -1°C° 0 mm 6 m/s 768 mmHg 78%
    04:00 -1°C° 0 mm 6 m/s 768 mmHg 79%
    05:00 -1°C° 0 mm 5 m/s 768 mmHg 80%
    06:00 -1°C° 0 mm 5 m/s 768 mmHg 81%
    07:00 -1°C° 0 mm 4 m/s 768 mmHg 80%
    08:00 -1°C° 0 mm 4 m/s 768 mmHg 79%
    09:00 0°C° 0 mm 3 m/s 769 mmHg 78%
    10:00 +1°C° 0 mm 3 m/s 768 mmHg 72%
    11:00 +2°C° 0 mm 3 m/s 768 mmHg 66%
    12:00 +4°C° 0 mm 2 m/s 768 mmHg 60%
    13:00 +4°C° 0 mm 2 m/s 767 mmHg 60%
    14:00 +4°C° 0 mm 2 m/s 766 mmHg 60%
    15:00 +3°C° 0 mm 3 m/s 765 mmHg 60%
    16:00 +3°C° 0 mm 3 m/s 765 mmHg 64%
    17:00 +2°C° 0 mm 3 m/s 764 mmHg 68%
    18:00 +1°C° 0 mm 3 m/s 763 mmHg 73%
    19:00 +1°C° 0 mm 4 m/s 762 mmHg 73%
    20:00 +2°C° 0 mm 5 m/s 761 mmHg 74%
    21:00 +3°C° 0 mm 6 m/s 760 mmHg 74%
    22:00 +2°C° 0.7 mm 8 m/s 758 mmHg 77%
    23:00 +2°C° 0.7 mm 9 m/s 757 mmHg 80%

    22 Ianuarie, Marţi

    Timp Temperatura Precipitaţii Vânt Presiune Umiditate
    00:00 +3°C° 0.7 mm 11 m/s 755 mmHg 83%
    01:00 +3°C° 1.2 mm 11 m/s 753 mmHg 84%
    02:00 +3°C° 1.2 mm 12 m/s 752 mmHg 84%
    03:00 +3°C° 1.2 mm 12 m/s 750 mmHg 85%
    04:00 +2°C° 1.6 mm 12 m/s 749 mmHg 85%
    05:00 +1°C° 1.6 mm 11 m/s 748 mmHg 85%
    06:00 +1°C° 1.6 mm 10 m/s 747 mmHg 86%
    07:00 0°C° 0.2 mm 10 m/s 747 mmHg 85%
    08:00 0°C° 0.2 mm 9 m/s 747 mmHg 85%
    09:00 0°C° 0.2 mm 9 m/s 747 mmHg 85%
    10:00 0°C° 0.4 mm 9 m/s 747 mmHg 86%
    11:00 0°C° 0.4 mm 9 m/s 746 mmHg 86%
    12:00 0°C° 0.4 mm 9 m/s 746 mmHg 87%
    13:00 0°C° 0.5 mm 9 m/s 746 mmHg 87%
    14:00 0°C° 0.5 mm 10 m/s 746 mmHg 88%
    15:00 0°C° 0.5 mm 10 m/s 745 mmHg 88%
    16:00 0°C° 0.5 mm 10 m/s 746 mmHg 89%
    17:00 0°C° 0.5 mm 10 m/s 746 mmHg 90%
    18:00 -2°C° 0.5 mm 10 m/s 746 mmHg 90%
    19:00 -1°C° 0.2 mm 9 m/s 746 mmHg 91%
    20:00 -1°C° 0.2 mm 8 m/s 746 mmHg 92%
    21:00 -1°C° 0.2 mm 7 m/s 746 mmHg 94%
    22:00 -1°C° 0 mm 7 m/s 747 mmHg 94%
    23:00 -1°C° 0 mm 6 m/s 747 mmHg 94%
    Arată mai mult